• MPC Preparation (Info)

  • MPEC 2011-U08 : 2011 UE

    The following Minor Planet Electronic Circular may be linked-to from your own Web pages, but must not otherwise be redistributed electronically.

    A form allowing access to any MPEC is at the bottom of this page.


    Read MPEC 2011-U07 Read MPEC 2011-U09


    M.P.E.C. 2011-U08                                Issued 2011 Oct. 17, 21:55 UT
    
         The Minor Planet Electronic Circulars contain information on unusual
             minor planets and routine data on comets.  They are published
       on behalf of Commission 20 of the International Astronomical Union by the
              Minor Planet Center, Smithsonian Astrophysical Observatory,
                              Cambridge, MA 02138, U.S.A.
    
                 Prepared using the Tamkin Foundation Computer Network
    
                                  MPC@CFA.HARVARD.EDU
                URL https://www.minorplanetcenter.net/    ISSN 1523-6714
    
                                        2011 UE
    
    Observations:
         K11U00E* C2011 10 17.41125 02 50 16.08 +23 01 30.6          18.2 VrEU008703
         K11U00E  C2011 10 17.41860 02 50 18.63 +23 03 52.6          18.4 VrEU008703
         K11U00E  C2011 10 17.42597 02 50 21.19 +23 06 16.8          18.0 VrEU008703
         K11U00E  C2011 10 17.43336 02 50 23.67 +23 08 41.6          18.5 VrEU008703
         K11U00E  C2011 10 17.47698 02 50 38.97 +23 22 40.7          17.9 VrEU008703
         K11U00E  C2011 10 17.47741 02 50 39.19 +23 22 47.8          18.0 VrEU008703
         K11U00E  C2011 10 17.47787 02 50 39.33 +23 22 57.9          18.6 VrEU008703
         K11U00E  C2011 10 17.51129 02 50 51.64 +23 33 30.4          18.0 VrEU008703
         K11U00E  C2011 10 17.51220 02 50 51.97 +23 33 46.9          17.8 VrEU008703
         K11U00E  C2011 10 17.51403 02 50 52.69 +23 34 21.9          18.0 VrEU008703
         K11U00E  C2011 10 17.55436 02 51 38.42 +23 47 23.6          19.1 RoEU008300
         K11U00E  C2011 10 17.55494 02 51 38.61 +23 47 35.2          18.4 RoEU008300
         K11U00E  C2011 10 17.55551 02 51 38.74 +23 47 45.4          19.1 RoEU008300
         K11U00E  C2011 10 17.55666 02 51 39.20 +23 48 08.5          19.0 RoEU008300
         K11U00E  C2011 10 17.55723 02 51 39.33 +23 48 18.4          19.0 RoEU008300
         K11U00E  C2011 10 17.55838 02 51 39.78 +23 48 41.8          19.0 RoEU008300
         K11U00E KC2011 10 17.81577 02 53 32.24 +25 06 47.8          18.3 RrEU008104
         K11U00E KC2011 10 17.81945 02 53 33.63 +25 07 56.1          18.1 RrEU008104
         K11U00E KC2011 10 17.82313 02 53 35.04 +25 09 03.4          18.5 RrEU008104
         K11U00E  C2011 10 17.84903 02 53 43.09 +25 16 44.0          18.5 RoEU008246
         K11U00E  C2011 10 17.84933 02 53 43.35 +25 16 50.1                oEU008246
         K11U00E  C2011 10 17.84969 02 53 43.47 +25 16 56.4                oEU008246
         K11U00E  C2011 10 17.85008 02 53 43.58 +25 17 03.7                oEU008246
         K11U00E  C2011 10 17.85047 02 53 43.70 +25 17 10.0                oEU008246
         K11U00E  C2011 10 17.85083 02 53 43.88 +25 17 16.9                oEU008246
         K11U00E  C2011 10 17.85120 02 53 43.95 +25 17 23.5                oEU008246
         K11U00E KC2011 10 17.86458 02 53 49.61 +25 21 37.8          18.5 VuEU008595
         K11U00E KC2011 10 17.87603 02 53 53.66 +25 25 05.6          18.7 VuEU008595
         K11U00E KC2011 10 17.88751 02 53 57.67 +25 28 33.2          18.7 VuEU008595
         K11U00E KC2011 10 17.89297 02 54 00.45 +25 30 06.7          18.0 RtEU008204
         K11U00E KC2011 10 17.89717 02 54 01.91 +25 31 22.1                tEU008204
         K11U00E KC2011 10 17.90091 02 54 03.22 +25 32 29.3                tEU008204
         K11U00E KC2011 10 17.90473 02 54 04.52 +25 33 37.8                tEU008204
    
    Observer details:
    104 San Marcello Pistoiese.  Observers P. Bacci, L. Tesi, G. Fagioli.
        Measurer P. Bacci.  0.60-m f/4 reflector + CCD.
    204 Schiaparelli Observatory.  Observer L. Buzzi.  0.60-m f/4.64 reflector
        + CCD.
    246 Klet Observatory-KLENOT.  Observers M. Tichy, J. Ticha, M. Kocer,
        M. Honkova.  Measurer M. Tichy.  1.06-m KLENOT Telescope + CCD.
    300 Bisei Spaceguard Center--BATTeRS.  Observers S. Okumura, S. Urakawa.
        1.0-m f/3.0 reflector + CCD.
    595 Farra d'Isonzo.  Observers E. Pettarin, M. Vivona.  Measurer M. Vivona.
        0.40-m f/4.5 reflector + CCD.
    703 Catalina Sky Survey.  Observer R. A. Kowalski.  Measurers J. D. Ahern,
        E. C. Beshore, A. Boattini, G. J. Garradd, A. R. Gibbs, P. Tricarico,
        A. D. Grauer, R. E. Hill, R. A. Kowalski, S. M. Larson, R. H. McNaught.
        0.68-m Schmidt + CCD.
    
    Orbital elements:
    2011 UE                                                  Earth MOID = 0.0182 AU
    Epoch 2011 Aug. 27.0 TT = JDT 2455800.5                 MPC
    M 346.26742              (2000.0)            P               Q
    n   0.41143076     Peri.  340.29375     +0.99721972     -0.05239126
    a   1.7903511      Node    22.90520     +0.07211376     +0.85765825
    e   0.4401067      Incl.    7.82510     -0.01877329     +0.51154422
    P   2.40           H   25.1           G   0.15           U   7
    Residuals in seconds of arc
    111017 703  1.1-  0.8+    111017 300  0.7+  0.2+    111017 246  0.2-  0.2+
    111017 703  0.3-  1.0-    111017 300  0.3-  0.7-    111017 246  0.5-  0.6-
    111017 703  0.4+  0.6-    111017 300  0.4+  0.1-    111017 246  0.2+  0.3-
    111017 703  0.3-  0.5+    111017 300  0.5-  1.3-    111017 246  0.7-  0.4-
    111017 703  0.4-  0.6+    111017 300  0.1+  0.4-    111017 595  0.0   0.4-
    111017 703  0.5+  0.5-    111017 104  0.6+  0.5+    111017 595  0.1-  0.2-
    111017 703  0.1+  0.8+    111017 104  0.1+  0.8+    111017 595  0.0   0.2+
    111017 703  0.3+  0.8+    111017 104  0.1+  0.2+    111017 204  0.2+  0.3+
    111017 703  0.1+  0.2+    111017 246  1.6-  0.4-    111017 204  0.2+  0.1+
    111017 703  0.6+  0.8+    111017 246  0.4+  0.3+    111017 204  0.5+  0.1+
    111017 300  0.9+  0.0     111017 246  0.3+  0.0     111017 204  0.3+  0.1+
    
    Ephemeris:
    2011 UE                  a,e,i = 1.79, 0.44, 8                   q = 1.0024
    Date    TT    R. A. (2000) Decl.     Delta      r     Elong.  Phase     V
    2011 09 17    17 16 24.2 -66 38 16   0.1127  1.0122    90.3    83.3    23.3
    ...
    2011 10 02    19 20 56.8 -72 58 30   0.05080 1.0029    90.5    86.6    21.7
    ...
    2011 10 10    00 46 30.1 -54 08 38   0.02185 1.0097   119.4    59.5    19.0
    ...
    2011 10 16    02 38 26.2 +13 44 08   0.02433 1.0200   160.5    19.0    18.0
    2011 10 17    02 47 11.6 +20 39 19   0.02749 1.0222   157.1    22.3    18.4
    2011 10 18    02 54 33.0 +26 02 57   0.03102 1.0244   153.8    25.5    18.8
    ...
    2011 10 24    03 20 47.7 +41 53 47   0.05559 1.0403   143.9    34.3    20.3
    ...
    2011 11 01    03 33 34.0 +48 10 23   0.09169 1.0674   143.0    34.0    21.5
    ...
    2011 11 16    03 37 20.1 +50 02 39   0.1653  1.1331   148.4    27.2    22.7
    
    A. U. Tomatic                (C) Copyright 2011 MPC           M.P.E.C. 2011-U08
    

    Read MPEC 2011-U07 Read MPEC 2011-U09


    MPEC number:

    Enter an MPEC number in one of the following forms:

    • 1997-B01 (the full form)
    • J97B01 (the packed version of the full form)
    • B01 (the abbreviated form)